owner,sensor,date,latitude,longitude,vertical_datum,direction_of_sea_water_velocity,sea_water_speed,upward_sea_water_velocity,qcFlag 
TABS,ioos:station:TABS:X:1,2017-09-01T00:00:00Z,27.0660,-96.3383,2.0,265.4445057,23.04278195,-99999.0,'11111222,11111222,99999999' 
TABS,ioos:station:TABS:X:1,2017-09-01T00:30:00Z,27.0660,-96.3383,2.0,270.7283533,26.76215985,-99999.0,'11111222,11111222,99999999' 
TABS,ioos:station:TABS:X:1,2017-09-01T01:00:00Z,27.0660,-96.3383,2.0,272.6089399,30.54164698,-99999.0,'11111222,11111222,99999999' 
TABS,ioos:station:TABS:X:1,2017-09-01T01:30:00Z,27.0660,-96.3383,2.0,274.9497583,34.0770612,-99999.0,'11111222,11111222,99999999' 
TABS,ioos:station:TABS:X:1,2017-09-01T02:00:00Z,27.0660,-96.3383,2.0,281.1160393,34.70098846,-99999.0,'11111222,11111222,99999999' 
TABS,ioos:station:TABS:X:1,2017-09-01T02:30:00Z,27.0660,-96.3383,2.0,279.2020247,32.5184563,-99999.0,'11111222,11111222,99999999' 
TABS,ioos:station:TABS:X:1,2017-09-01T03:00:00Z,27.0660,-96.3383,2.0,288.1540238,38.00154865,-99999.0,'11111222,11111222,99999999' 
TABS,ioos:station:TABS:X:1,2017-09-01T03:30:00Z,27.0660,-96.3383,2.0,292.4015166,37.07796246,-99999.0,'11111222,11111222,99999999' 
TABS,ioos:station:TABS:X:1,2017-09-01T04:00:00Z,27.0660,-96.3383,2.0,299.2632093,34.20502887,-99999.0,'11111222,11111222,99999999' 
TABS,ioos:station:TABS:X:1,2017-09-01T04:30:00Z,27.0660,-96.3383,2.0,299.5231576,33.28124998,-99999.0,'11111222,11111222,99999999' 
TABS,ioos:station:TABS:X:1,2017-09-01T05:00:00Z,27.0660,-96.3383,2.0,303.9771679,36.57461551,-99999.0,'11111222,11111222,99999999' 
TABS,ioos:station:TABS:X:1,2017-09-01T05:30:00Z,27.0660,-96.3383,2.0,303.4045618,36.6911011,-99999.0,'11111222,11111222,99999999' 
TABS,ioos:station:TABS:X:1,2017-09-01T06:00:00Z,27.0660,-96.3383,2.0,308.8122552,35.88260999,-99999.0,'11111222,11111222,99999999' 
TABS,ioos:station:TABS:X:1,2017-09-01T06:30:00Z,27.0660,-96.3383,2.0,304.5944429,35.86028444,-99999.0,'11111222,11111222,99999999' 
TABS,ioos:station:TABS:X:1,2017-09-01T07:00:00Z,27.0660,-96.3383,2.0,307.8785199,31.36885717,-99999.0,'11111222,11111222,99999999' 
TABS,ioos:station:TABS:X:1,2017-09-01T07:30:00Z,27.0660,-96.3383,2.0,312.282999,34.30496757,-99999.0,'11111222,11111222,99999999' 
TABS,ioos:station:TABS:X:1,2017-09-01T08:00:00Z,27.0660,-96.3383,2.0,313.4905074,31.39937101,-99999.0,'11111222,11111222,99999999' 
TABS,ioos:station:TABS:X:1,2017-09-01T08:30:00Z,27.0660,-96.3383,2.0,322.9126379,23.68017103,-99999.0,'11111222,11111222,99999999' 
TABS,ioos:station:TABS:X:1,2017-09-01T09:00:00Z,27.0660,-96.3383,2.0,328.7084618,23.66204767,-99999.0,'11111222,11111222,99999999' 
TABS,ioos:station:TABS:X:1,2017-09-01T09:30:00Z,27.0660,-96.3383,2.0,342.4843351,26.81323927,-99999.0,'11111222,11111222,99999999' 
TABS,ioos:station:TABS:X:1,2017-09-01T10:00:00Z,27.0660,-96.3383,2.0,354.6218175,23.68427326,-99999.0,'11111222,11111222,99999999' 
TABS,ioos:station:TABS:X:1,2017-09-01T10:30:00Z,27.0660,-96.3383,2.0,354.050743,22.67211944,-99999.0,'11111222,11111222,99999999' 
TABS,ioos:station:TABS:X:1,2017-09-01T11:00:00Z,27.0660,-96.3383,2.0,354.6506194,20.05736274,-99999.0,'11111222,11111222,99999999' 
TABS,ioos:station:TABS:X:1,2017-09-01T11:30:00Z,27.0660,-96.3383,2.0,357.0825703,17.0921561,-99999.0,'11111222,11111222,99999999' 
TABS,ioos:station:TABS:X:1,2017-09-01T12:00:00Z,27.0660,-96.3383,2.0,351.4331606,18.72897488,-99999.0,'11111222,11111222,99999999' 
TABS,ioos:station:TABS:X:1,2017-09-01T12:30:00Z,27.0660,-96.3383,2.0,350.8689459,18.21077977,-99999.0,'11111222,11111222,99999999' 
TABS,ioos:station:TABS:X:1,2017-09-01T13:00:00Z,27.0660,-96.3383,2.0,348.8704316,14.97157974,-99999.0,'11111222,11111222,99999999' 
TABS,ioos:station:TABS:X:1,2017-09-01T13:30:00Z,27.0660,-96.3383,2.0,351.8937672,10.28274769,-99999.0,'11111222,11111222,99999999' 
TABS,ioos:station:TABS:X:1,2017-09-01T14:00:00Z,27.0660,-96.3383,2.0,345.1700422,8.751525581,-99999.0,'11133222,11111222,99999999' 
TABS,ioos:station:TABS:X:1,2017-09-01T14:30:00Z,27.0660,-96.3383,2.0,333.6876235,8.121477698,-99999.0,'11133222,11111222,99999999' 
TABS,ioos:station:TABS:X:1,2017-09-01T15:00:00Z,27.0660,-96.3383,2.0,337.3483718,4.128462183,-99999.0,'11133222,11111222,99999999' 
TABS,ioos:station:TABS:X:1,2017-09-01T15:30:00Z,27.0660,-96.3383,2.0,334.9040187,1.744706279,-99999.0,'11133222,11111222,99999999' 
TABS,ioos:station:TABS:X:1,2017-09-01T16:00:00Z,27.0660,-96.3383,2.0,267.6967055,3.733014867,-99999.0,'11133222,11111222,99999999' 
TABS,ioos:station:TABS:X:1,2017-09-01T16:30:00Z,27.0660,-96.3383,2.0,238.3225821,6.474573345,-99999.0,'11133222,11111222,99999999' 
TABS,ioos:station:TABS:X:1,2017-09-01T17:00:00Z,27.0660,-96.3383,2.0,233.1025747,12.64200142,-99999.0,'11111222,11111222,99999999' 
TABS,ioos:station:TABS:X:1,2017-09-01T17:30:00Z,27.0660,-96.3383,2.0,217.2521703,22.76450746,-99999.0,'11111222,11111222,99999999' 
TABS,ioos:station:TABS:X:1,2017-09-01T18:00:00Z,27.0660,-96.3383,2.0,228.6500543,27.98750078,-99999.0,'11111222,11111222,99999999' 
TABS,ioos:station:TABS:X:1,2017-09-01T18:30:00Z,27.0660,-96.3383,2.0,236.5154421,30.10654746,-99999.0,'11111222,11111222,99999999' 
TABS,ioos:station:TABS:X:1,2017-09-01T19:00:00Z,27.0660,-96.3383,2.0,245.2567061,29.8173909,-99999.0,'11111222,11111222,99999999' 
TABS,ioos:station:TABS:X:1,2017-09-01T19:30:00Z,27.0660,-96.3383,2.0,244.519188,30.24152939,-99999.0,'11111222,11111222,99999999' 
TABS,ioos:station:TABS:X:1,2017-09-01T20:00:00Z,27.0660,-96.3383,2.0,244.5626286,31.80305017,-99999.0,'11111222,11111222,99999999' 
TABS,ioos:station:TABS:X:1,2017-09-01T20:30:00Z,27.0660,-96.3383,2.0,244.5577393,33.31039628,-99999.0,'11111222,11111222,99999999' 
TABS,ioos:station:TABS:X:1,2017-09-01T21:00:00Z,27.0660,-96.3383,2.0,265.1405295,33.41007333,-99999.0,'11111222,11111222,99999999' 
TABS,ioos:station:TABS:X:1,2017-09-01T21:30:00Z,27.0660,-96.3383,2.0,274.2085709,35.97699265,-99999.0,'11111222,11111222,99999999' 
TABS,ioos:station:TABS:X:1,2017-09-01T22:00:00Z,27.0660,-96.3383,2.0,272.5866957,30.36092555,-99999.0,'11111222,11111222,99999999' 
TABS,ioos:station:TABS:X:1,2017-09-01T22:30:00Z,27.0660,-96.3383,2.0,285.3774639,33.37476442,-99999.0,'11111222,11111222,99999999' 
TABS,ioos:station:TABS:X:1,2017-09-01T23:00:00Z,27.0660,-96.3383,2.0,295.5369088,25.91125817,-99999.0,'11111222,11111222,99999999' 
TABS,ioos:station:TABS:X:1,2017-09-01T23:30:00Z,27.0660,-96.3383,2.0,308.8037449,26.79325475,-99999.0,'11111222,11111222,99999999' 
TABS,ioos:station:TABS:X:1,2017-09-02T00:00:00Z,27.0660,-96.3383,2.0,339.5164195,29.7191117,-99999.0,'11111222,11111222,99999999' 
TABS,ioos:station:TABS:X:1,2017-09-02T00:30:00Z,27.0660,-96.3383,2.0,355.2171586,34.29944606,-99999.0,'11111222,11111222,99999999' 
TABS,ioos:station:TABS:X:1,2017-09-02T01:00:00Z,27.0660,-96.3383,2.0,4.73258657,38.05974908,-99999.0,'11111222,11111222,99999999' 
TABS,ioos:station:TABS:X:1,2017-09-02T01:30:00Z,27.0660,-96.3383,2.0,12.73168042,32.80659842,-99999.0,'11111222,11111222,99999999' 
TABS,ioos:station:TABS:X:1,2017-09-02T02:00:00Z,27.0660,-96.3383,2.0,7.678198554,39.96833372,-99999.0,'11111222,11111222,99999999' 
TABS,ioos:station:TABS:X:1,2017-09-02T02:30:00Z,27.0660,-96.3383,2.0,6.907011345,46.90035394,-99999.0,'11111222,11111222,99999999' 
TABS,ioos:station:TABS:X:1,2017-09-02T03:00:00Z,27.0660,-96.3383,2.0,11.97377993,46.90039765,-99999.0,'11111222,11111222,99999999' 
TABS,ioos:station:TABS:X:1,2017-09-02T03:30:00Z,27.0660,-96.3383,2.0,15.4506163,45.79497352,-99999.0,'11111222,11111222,99999999' 
TABS,ioos:station:TABS:X:1,2017-09-02T04:00:00Z,27.0660,-96.3383,2.0,14.46070066,49.45679529,-99999.0,'11111222,11111222,99999999' 
TABS,ioos:station:TABS:X:1,2017-09-02T04:30:00Z,27.0660,-96.3383,2.0,19.03448006,45.04278522,-99999.0,'11111222,11111222,99999999' 
TABS,ioos:station:TABS:X:1,2017-09-02T05:00:00Z,27.0660,-96.3383,2.0,20.43347913,43.16604453,-99999.0,'11111222,11111222,99999999' 
TABS,ioos:station:TABS:X:1,2017-09-02T05:30:00Z,27.0660,-96.3383,2.0,20.01751155,44.31724834,-99999.0,'11111222,11111222,99999999' 
TABS,ioos:station:TABS:X:1,2017-09-02T06:00:00Z,27.0660,-96.3383,2.0,17.7684898,44.30334637,-99999.0,'11111222,11111222,99999999' 
TABS,ioos:station:TABS:X:1,2017-09-02T06:30:00Z,27.0660,-96.3383,2.0,17.41887369,43.86136569,-99999.0,'11111222,11111222,99999999' 
TABS,ioos:station:TABS:X:1,2017-09-02T07:00:00Z,27.0660,-96.3383,2.0,19.24120286,42.48308016,-99999.0,'11111222,11111222,99999999' 
TABS,ioos:station:TABS:X:1,2017-09-02T07:30:00Z,27.0660,-96.3383,2.0,17.12495521,40.10816625,-99999.0,'11111222,11111222,99999999' 
TABS,ioos:station:TABS:X:1,2017-09-02T08:00:00Z,27.0660,-96.3383,2.0,14.13951045,37.74345506,-99999.0,'11111222,11111222,99999999' 
TABS,ioos:station:TABS:X:1,2017-09-02T08:30:00Z,27.0660,-96.3383,2.0,16.31474787,37.0936167,-99999.0,'11111222,11111222,99999999' 
TABS,ioos:station:TABS:X:1,2017-09-02T09:00:00Z,27.0660,-96.3383,2.0,20.35213646,34.50394905,-99999.0,'11111222,11111222,99999999' 
TABS,ioos:station:TABS:X:1,2017-09-02T09:30:00Z,27.0660,-96.3383,2.0,21.02247341,29.77157201,-99999.0,'11111222,11111222,99999999' 
TABS,ioos:station:TABS:X:1,2017-09-02T10:00:00Z,27.0660,-96.3383,2.0,24.15100258,27.17893302,-99999.0,'11111222,11111222,99999999' 
TABS,ioos:station:TABS:X:1,2017-09-02T10:30:00Z,27.0660,-96.3383,2.0,29.2520508,19.46177022,-99999.0,'11111222,11111222,99999999' 
TABS,ioos:station:TABS:X:1,2017-09-02T11:00:00Z,27.0660,-96.3383,2.0,34.94036482,20.84782243,-99999.0,'11111222,11111222,99999999' 
TABS,ioos:station:TABS:X:1,2017-09-02T11:30:00Z,27.0660,-96.3383,2.0,29.47486941,18.67735795,-99999.0,'11111222,11111222,99999999' 
TABS,ioos:station:TABS:X:1,2017-09-02T12:00:00Z,27.0660,-96.3383,2.0,42.09885262,17.18350663,-99999.0,'11111222,11111222,99999999' 
TABS,ioos:station:TABS:X:1,2017-09-02T12:30:00Z,27.0660,-96.3383,2.0,49.87619223,17.05349524,-99999.0,'11111222,11111222,99999999' 
TABS,ioos:station:TABS:X:1,2017-09-02T13:00:00Z,27.0660,-96.3383,2.0,48.19192512,14.98562645,-99999.0,'11111222,11111222,99999999' 
TABS,ioos:station:TABS:X:1,2017-09-02T13:30:00Z,27.0660,-96.3383,2.0,57.43669187,13.82302789,-99999.0,'11111222,11111222,99999999' 
TABS,ioos:station:TABS:X:1,2017-09-02T14:00:00Z,27.0660,-96.3383,2.0,50.63787534,14.39561739,-99999.0,'11111222,11111222,99999999' 
TABS,ioos:station:TABS:X:1,2017-09-02T14:30:00Z,27.0660,-96.3383,2.0,66.75852728,12.26533734,-99999.0,'11111222,11111222,99999999' 
TABS,ioos:station:TABS:X:1,2017-09-02T15:00:00Z,27.0660,-96.3383,2.0,65.01362522,10.22718436,-99999.0,'11111222,11111222,99999999' 
TABS,ioos:station:TABS:X:1,2017-09-02T15:30:00Z,27.0660,-96.3383,2.0,74.82841797,7.2217034,-99999.0,'11133222,11111222,99999999' 
TABS,ioos:station:TABS:X:1,2017-09-02T16:00:00Z,27.0660,-96.3383,2.0,90.32188226,5.340084269,-99999.0,'11133222,11111222,99999999' 
TABS,ioos:station:TABS:X:1,2017-09-02T16:30:00Z,27.0660,-96.3383,2.0,125.3427859,3.077092784,-99999.0,'11133222,11111222,99999999' 
TABS,ioos:station:TABS:X:1,2017-09-02T17:00:00Z,27.0660,-96.3383,2.0,201.2289735,2.789283062,-99999.0,'11133222,11111222,99999999' 
TABS,ioos:station:TABS:X:1,2017-09-02T17:30:00Z,27.0660,-96.3383,2.0,250.354382,4.491436296,-99999.0,'11133222,11111222,99999999' 
TABS,ioos:station:TABS:X:1,2017-09-02T18:00:00Z,27.0660,-96.3383,2.0,265.2738843,3.762791517,-99999.0,'11133222,11111222,99999999' 
TABS,ioos:station:TABS:X:1,2017-09-02T18:30:00Z,27.0660,-96.3383,2.0,282.2353223,5.709684755,-99999.0,'11133222,11111222,99999999' 
TABS,ioos:station:TABS:X:1,2017-09-02T19:00:00Z,27.0660,-96.3383,2.0,252.4393481,9.943359593,-99999.0,'11133222,11111222,99999999' 
TABS,ioos:station:TABS:X:1,2017-09-02T19:30:00Z,27.0660,-96.3383,2.0,235.9773298,11.95676378,-99999.0,'11111222,11111222,99999999' 
TABS,ioos:station:TABS:X:1,2017-09-02T20:00:00Z,27.0660,-96.3383,2.0,226.9001012,12.36702875,-99999.0,'11111222,11111222,99999999' 
TABS,ioos:station:TABS:X:1,2017-09-02T20:30:00Z,27.0660,-96.3383,2.0,233.4490872,12.56019506,-99999.0,'11111222,11111222,99999999' 
TABS,ioos:station:TABS:X:1,2017-09-02T21:00:00Z,27.0660,-96.3383,2.0,252.2577794,15.42355666,-99999.0,'11111222,11111222,99999999' 
TABS,ioos:station:TABS:X:1,2017-09-02T21:30:00Z,27.0660,-96.3383,2.0,240.0978612,17.21112431,-99999.0,'11111222,11111222,99999999' 
TABS,ioos:station:TABS:X:1,2017-09-02T22:00:00Z,27.0660,-96.3383,2.0,251.5269871,14.42315153,-99999.0,'11111222,11111222,99999999' 
TABS,ioos:station:TABS:X:1,2017-09-02T22:30:00Z,27.0660,-96.3383,2.0,249.6017676,20.77254197,-99999.0,'11111222,11111222,99999999' 
TABS,ioos:station:TABS:X:1,2017-09-02T23:00:00Z,27.0660,-96.3383,2.0,252.4064316,17.43551835,-99999.0,'11111222,11111222,99999999' 
TABS,ioos:station:TABS:X:1,2017-09-02T23:30:00Z,27.0660,-96.3383,2.0,268.9186574,24.91443357,-99999.0,'11111222,11111222,99999999' 
TABS,ioos:station:TABS:X:1,2017-09-03T00:00:00Z,27.0660,-96.3383,2.0,274.2693682,24.04671495,-99999.0,'11111222,11111222,99999999' 
TABS,ioos:station:TABS:X:1,2017-09-03T00:30:00Z,27.0660,-96.3383,2.0,277.5221173,25.43889345,-99999.0,'11111222,11111222,99999999' 
TABS,ioos:station:TABS:X:1,2017-09-03T01:00:00Z,27.0660,-96.3383,2.0,286.7238636,29.4349622,-99999.0,'11111222,11111222,99999999' 
TABS,ioos:station:TABS:X:1,2017-09-03T01:30:00Z,27.0660,-96.3383,2.0,290.9691943,30.54267997,-99999.0,'11111222,11111222,99999999' 
TABS,ioos:station:TABS:X:1,2017-09-03T02:00:00Z,27.0660,-96.3383,2.0,296.4557359,28.03587166,-99999.0,'11111222,11111222,99999999' 
TABS,ioos:station:TABS:X:1,2017-09-03T02:30:00Z,27.0660,-96.3383,2.0,294.8004322,28.8947625,-99999.0,'11111222,11111222,99999999' 
TABS,ioos:station:TABS:X:1,2017-09-03T03:00:00Z,27.0660,-96.3383,2.0,298.1419563,27.79590258,-99999.0,'11111222,11111222,99999999' 
TABS,ioos:station:TABS:X:1,2017-09-03T03:30:00Z,27.0660,-96.3383,2.0,299.8891009,25.68643416,-99999.0,'11111222,11111222,99999999' 
TABS,ioos:station:TABS:X:1,2017-09-03T04:00:00Z,27.0660,-96.3383,2.0,301.5984091,23.85691514,-99999.0,'11111222,11111222,99999999' 
TABS,ioos:station:TABS:X:1,2017-09-03T04:30:00Z,27.0660,-96.3383,2.0,305.5738927,25.99065217,-99999.0,'11111222,11111222,99999999' 
TABS,ioos:station:TABS:X:1,2017-09-03T05:00:00Z,27.0660,-96.3383,2.0,302.1411916,24.21041924,-99999.0,'11111222,11111222,99999999' 
TABS,ioos:station:TABS:X:1,2017-09-03T05:30:00Z,27.0660,-96.3383,2.0,304.4894603,25.85431685,-99999.0,'11111222,11111222,99999999' 
TABS,ioos:station:TABS:X:1,2017-09-03T06:00:00Z,27.0660,-96.3383,2.0,306.0030431,22.20054279,-99999.0,'11111222,11111222,99999999' 
TABS,ioos:station:TABS:X:1,2017-09-03T06:30:00Z,27.0660,-96.3383,2.0,305.8507437,20.23320291,-99999.0,'11111222,11111222,99999999' 
TABS,ioos:station:TABS:X:1,2017-09-03T07:00:00Z,27.0660,-96.3383,2.0,315.0938442,21.65870956,-99999.0,'11111222,11111222,99999999' 
TABS,ioos:station:TABS:X:1,2017-09-03T07:30:00Z,27.0660,-96.3383,2.0,323.8421096,18.03339125,-99999.0,'11111222,11111222,99999999' 
TABS,ioos:station:TABS:X:1,2017-09-03T08:00:00Z,27.0660,-96.3383,2.0,322.4486715,16.47316606,-99999.0,'11111222,11111222,99999999' 
TABS,ioos:station:TABS:X:1,2017-09-03T08:30:00Z,27.0660,-96.3383,2.0,321.1704764,16.84185263,-99999.0,'11111222,11111222,99999999' 
TABS,ioos:station:TABS:X:1,2017-09-03T09:00:00Z,27.0660,-96.3383,2.0,331.7850073,11.80238959,-99999.0,'11111222,11111222,99999999' 
TABS,ioos:station:TABS:X:1,2017-09-03T09:30:00Z,27.0660,-96.3383,2.0,336.9082458,11.29499889,-99999.0,'11111222,11111222,99999999' 
TABS,ioos:station:TABS:X:1,2017-09-03T10:00:00Z,27.0660,-96.3383,2.0,339.9569255,11.37919593,-99999.0,'11111222,11111222,99999999' 
TABS,ioos:station:TABS:X:1,2017-09-03T10:30:00Z,27.0660,-96.3383,2.0,351.4340719,10.40608476,-99999.0,'11111222,11111222,99999999' 
TABS,ioos:station:TABS:X:1,2017-09-03T11:00:00Z,27.0660,-96.3383,2.0,354.7299915,9.580501031,-99999.0,'11133222,11111222,99999999' 
TABS,ioos:station:TABS:X:1,2017-09-03T11:30:00Z,27.0660,-96.3383,2.0,353.7373406,11.45838558,-99999.0,'11111222,11111222,99999999' 
TABS,ioos:station:TABS:X:1,2017-09-03T12:00:00Z,27.0660,-96.3383,2.0,359.2227599,9.580882005,-99999.0,'11133222,11144222,99999999' 
TABS,ioos:station:TABS:X:1,2017-09-03T12:30:00Z,27.0660,-96.3383,2.0,39.3033283,5.841266986,-99999.0,'11133222,11111222,99999999' 
TABS,ioos:station:TABS:X:1,2017-09-03T13:00:00Z,27.0660,-96.3383,2.0,17.79763877,4.547636749,-99999.0,'11133222,11111222,99999999' 
TABS,ioos:station:TABS:X:1,2017-09-03T13:30:00Z,27.0660,-96.3383,2.0,52.17351013,3.114434138,-99999.0,'11133222,11111222,99999999' 
TABS,ioos:station:TABS:X:1,2017-09-03T14:00:00Z,27.0660,-96.3383,2.0,73.00286014,2.394598087,-99999.0,'11133222,11111222,99999999' 
TABS,ioos:station:TABS:X:1,2017-09-03T14:30:00Z,27.0660,-96.3383,2.0,20.96284128,1.649151297,-99999.0,'11133222,11111222,99999999' 
TABS,ioos:station:TABS:X:1,2017-09-03T15:00:00Z,27.0660,-96.3383,2.0,95.37669286,1.707512811,-99999.0,'11133222,11111222,99999999' 
TABS,ioos:station:TABS:X:1,2017-09-03T15:30:00Z,27.0660,-96.3383,2.0,174.4125586,0.924391692,-99999.0,'11133222,11111222,99999999' 
TABS,ioos:station:TABS:X:1,2017-09-03T16:00:00Z,27.0660,-96.3383,2.0,277.9771711,1.58533908,-99999.0,'11133222,11111222,99999999' 
TABS,ioos:station:TABS:X:1,2017-09-03T16:30:00Z,27.0660,-96.3383,2.0,223.6615422,6.358624065,-99999.0,'11133222,11111222,99999999' 
TABS,ioos:station:TABS:X:1,2017-09-03T17:00:00Z,27.0660,-96.3383,2.0,198.5302676,7.583152379,-99999.0,'11133222,11111222,99999999' 
TABS,ioos:station:TABS:X:1,2017-09-03T17:30:00Z,27.0660,-96.3383,2.0,212.9478041,7.92455677,-99999.0,'11133222,11111222,99999999' 
TABS,ioos:station:TABS:X:1,2017-09-03T18:00:00Z,27.0660,-96.3383,2.0,210.9477805,6.261413578,-99999.0,'11133222,11111222,99999999' 
TABS,ioos:station:TABS:X:1,2017-09-03T18:30:00Z,27.0660,-96.3383,2.0,197.994452,8.642759976,-99999.0,'11133222,11111222,99999999' 
TABS,ioos:station:TABS:X:1,2017-09-03T19:00:00Z,27.0660,-96.3383,2.0,237.6494351,5.81207364,-99999.0,'11133222,11111222,99999999' 
TABS,ioos:station:TABS:X:1,2017-09-03T19:30:00Z,27.0660,-96.3383,2.0,241.6622945,3.181210461,-99999.0,'11133222,11111222,99999999' 
TABS,ioos:station:TABS:X:1,2017-09-03T20:00:00Z,27.0660,-96.3383,2.0,238.6057555,4.568851059,-99999.0,'11133222,11111222,99999999' 
TABS,ioos:station:TABS:X:1,2017-09-03T20:30:00Z,27.0660,-96.3383,2.0,234.6938742,7.180675456,-99999.0,'11133222,11111222,99999999' 
TABS,ioos:station:TABS:X:1,2017-09-03T21:00:00Z,27.0660,-96.3383,2.0,222.8379631,11.81001693,-99999.0,'11111222,11111222,99999999' 
TABS,ioos:station:TABS:X:1,2017-09-03T21:30:00Z,27.0660,-96.3383,2.0,240.9726908,24.15393964,-99999.0,'11111222,11111222,99999999' 
TABS,ioos:station:TABS:X:1,2017-09-03T22:00:00Z,27.0660,-96.3383,2.0,243.4718071,27.53941902,-99999.0,'11111222,11111222,99999999' 
TABS,ioos:station:TABS:X:1,2017-09-03T22:30:00Z,27.0660,-96.3383,2.0,246.3350029,31.64064475,-99999.0,'11111222,11111222,99999999' 
TABS,ioos:station:TABS:X:1,2017-09-03T23:00:00Z,27.0660,-96.3383,2.0,247.7564458,28.90062456,-99999.0,'11111222,11111222,99999999' 
TABS,ioos:station:TABS:X:1,2017-09-03T23:30:00Z,27.0660,-96.3383,2.0,251.514226,28.73246596,-99999.0,'11111222,11111222,99999999' 
TABS,ioos:station:TABS:X:1,2017-09-04T00:00:00Z,27.0660,-96.3383,2.0,250.9577507,29.853576,-99999.0,'11111222,11111222,99999999' 
TABS,ioos:station:TABS:X:1,2017-09-04T00:30:00Z,27.0660,-96.3383,2.0,254.5845478,29.5324127,-99999.0,'11111222,11111222,99999999' 
TABS,ioos:station:TABS:X:1,2017-09-04T01:00:00Z,27.0660,-96.3383,2.0,256.8611373,29.2558131,-99999.0,'11111222,11111222,99999999' 
TABS,ioos:station:TABS:X:1,2017-09-04T01:30:00Z,27.0660,-96.3383,2.0,258.8878291,31.75531452,-99999.0,'11111222,11111222,99999999' 
TABS,ioos:station:TABS:X:1,2017-09-04T02:00:00Z,27.0660,-96.3383,2.0,267.604753,37.57281597,-99999.0,'11111222,11111222,99999999' 
TABS,ioos:station:TABS:X:1,2017-09-04T02:30:00Z,27.0660,-96.3383,2.0,270.4964747,34.65129868,-99999.0,'11111222,11111222,99999999' 
TABS,ioos:station:TABS:X:1,2017-09-04T03:00:00Z,27.0660,-96.3383,2.0,276.6402075,36.32363418,-99999.0,'11111222,11111222,99999999' 
TABS,ioos:station:TABS:X:1,2017-09-04T03:30:00Z,27.0660,-96.3383,2.0,273.723314,35.11409973,-99999.0,'11111222,11111222,99999999' 
TABS,ioos:station:TABS:X:1,2017-09-04T04:00:00Z,27.0660,-96.3383,2.0,277.03213,32.75637648,-99999.0,'11111222,11111222,99999999' 
TABS,ioos:station:TABS:X:1,2017-09-04T04:30:00Z,27.0660,-96.3383,2.0,278.9906913,33.72430874,-99999.0,'11111222,11111222,99999999' 
TABS,ioos:station:TABS:X:1,2017-09-04T05:00:00Z,27.0660,-96.3383,2.0,282.5114854,35.08307997,-99999.0,'11111222,11111222,99999999' 
TABS,ioos:station:TABS:X:1,2017-09-04T05:30:00Z,27.0660,-96.3383,2.0,282.9913366,35.09832047,-99999.0,'11111222,11111222,99999999' 
TABS,ioos:station:TABS:X:1,2017-09-04T06:00:00Z,27.0660,-96.3383,2.0,285.7679737,31.8691779,-99999.0,'11111222,11111222,99999999' 
TABS,ioos:station:TABS:X:1,2017-09-04T06:30:00Z,27.0660,-96.3383,2.0,288.5743935,28.66296914,-99999.0,'11111222,11111222,99999999' 
TABS,ioos:station:TABS:X:1,2017-09-04T07:00:00Z,27.0660,-96.3383,2.0,290.0688285,26.95672272,-99999.0,'11111222,11111222,99999999' 
TABS,ioos:station:TABS:X:1,2017-09-04T07:30:00Z,27.0660,-96.3383,2.0,294.0679918,25.45274052,-99999.0,'11111222,11111222,99999999' 
TABS,ioos:station:TABS:X:1,2017-09-04T08:00:00Z,27.0660,-96.3383,2.0,291.4148223,21.17160835,-99999.0,'11111222,11111222,99999999' 
TABS,ioos:station:TABS:X:1,2017-09-04T08:30:00Z,27.0660,-96.3383,2.0,285.4271269,20.78899949,-99999.0,'11111222,11111222,99999999' 
TABS,ioos:station:TABS:X:1,2017-09-04T09:00:00Z,27.0660,-96.3383,2.0,282.9563312,21.09707326,-99999.0,'11111222,11111222,99999999' 
TABS,ioos:station:TABS:X:1,2017-09-04T09:30:00Z,27.0660,-96.3383,2.0,274.7782905,20.04967082,-99999.0,'11111222,11111222,99999999' 
TABS,ioos:station:TABS:X:1,2017-09-04T10:00:00Z,27.0660,-96.3383,2.0,279.7308472,16.86258877,-99999.0,'11111222,11111222,99999999' 
TABS,ioos:station:TABS:X:1,2017-09-04T10:30:00Z,27.0660,-96.3383,2.0,273.6344091,17.35489556,-99999.0,'11111222,11111222,99999999' 
TABS,ioos:station:TABS:X:1,2017-09-04T11:00:00Z,27.0660,-96.3383,2.0,270.6690744,16.28110868,-99999.0,'11111222,11111222,99999999' 
TABS,ioos:station:TABS:X:1,2017-09-04T11:30:00Z,27.0660,-96.3383,2.0,259.9466232,11.80118638,-99999.0,'11111222,11111222,99999999' 
TABS,ioos:station:TABS:X:1,2017-09-04T12:00:00Z,27.0660,-96.3383,2.0,255.7403292,16.19907713,-99999.0,'11111222,11111222,99999999' 
TABS,ioos:station:TABS:X:1,2017-09-04T12:30:00Z,27.0660,-96.3383,2.0,251.1413142,15.40703735,-99999.0,'11111222,11111222,99999999' 
TABS,ioos:station:TABS:X:1,2017-09-04T13:00:00Z,27.0660,-96.3383,2.0,247.2119123,13.91621357,-99999.0,'11111222,11111222,99999999' 
TABS,ioos:station:TABS:X:1,2017-09-04T13:30:00Z,27.0660,-96.3383,2.0,236.963648,13.84899274,-99999.0,'11111222,11111222,99999999' 
TABS,ioos:station:TABS:X:1,2017-09-04T14:00:00Z,27.0660,-96.3383,2.0,256.2682771,5.013282358,-99999.0,'11133222,11111222,99999999' 
TABS,ioos:station:TABS:X:1,2017-09-04T14:30:00Z,27.0660,-96.3383,2.0,250.2618268,9.179302806,-99999.0,'11133222,11111222,99999999' 
TABS,ioos:station:TABS:X:1,2017-09-04T15:00:00Z,27.0660,-96.3383,2.0,230.243572,8.897286103,-99999.0,'11133222,11111222,99999999' 
TABS,ioos:station:TABS:X:1,2017-09-04T15:30:00Z,27.0660,-96.3383,2.0,214.4954092,6.903926419,-99999.0,'11133222,11111222,99999999' 
TABS,ioos:station:TABS:X:1,2017-09-04T16:00:00Z,27.0660,-96.3383,2.0,198.0340329,4.974384384,-99999.0,'11133222,11111222,99999999' 
TABS,ioos:station:TABS:X:1,2017-09-04T16:30:00Z,27.0660,-96.3383,2.0,208.3796617,8.331296418,-99999.0,'11133222,11111222,99999999' 
TABS,ioos:station:TABS:X:1,2017-09-04T17:00:00Z,27.0660,-96.3383,2.0,232.2057245,4.960645119,-99999.0,'11133222,11111222,99999999' 
TABS,ioos:station:TABS:X:1,2017-09-04T17:30:00Z,27.0660,-96.3383,2.0,214.2829355,5.894005429,-99999.0,'11133222,11111222,99999999' 
TABS,ioos:station:TABS:X:1,2017-09-04T18:00:00Z,27.0660,-96.3383,2.0,183.2642654,10.88766734,-99999.0,'11111222,11111222,99999999' 